Weather observations for the past three days for
Mackall U. S. Army Airfield
Imperial (Metric)
Date Time (edt) Wind (mph) Vis. (mi.) Weather Sky Cond. Temperature (ºF) Relative Humidity Wind Chill (°F) Heat Index (°F) Pressure Precipitation (in)
Air Dwpt 6 hour altimeter (in) sea level (mb) 1 hr 3 hr 6 hr
Max. Min.
17 04:55 SW 7 10.00 Overcast OVC200 75.2 72.3 91% 74 29.92 1012.9
17 03:55 SW 8 10.00 Fair CLR 75.9 72.3 89% 76 29.92 1012.9
17 02:55 SW 6 10.00 Fair CLR 76.1 72.9 90% 76 29.93 1013.3
17 01:55 SW 5 10.00 Fair CLR 75.9 73.4 81.3 75.9 92% 76 29.95 1013.9
17 00:55 S 3 10.00 Fair CLR 76.6 73.4 90% 77 29.96 1014.3
16 23:55 SW 5 10.00 Mostly Cloudy BKN230 77.5 73.2 87% 79 29.97 1014.7
16 22:55 SW 3 10.00 Fair CLR 77.7 73.8 88% 80 29.96 1014.3
16 21:55 SW 7 10.00 A Few Clouds FEW170 78.8 74.8 88% 82 29.95 1014.0
16 20:55 SW 7 10.00 Thunderstorm in Vicinity CLR 80.2 75.9 87% 86 29.94 1013.7
16 19:55 SW 9 10.00 Mostly Cloudy SCT150 BKN220 81 76.3 99.3 77.9 86% 87 29.92 1013.1 0.02 0.39
16 18:55 S 18 G 32 6.00 Thunderstorm in Vicinity Heavy Rain Fog/Mist SCT026 BKN043 BKN060 OVC100 78.1 75.6 92% 81 29.92 1013.1 0.37
16 17:55 S 18 10.00 Thunderstorm BKN065 BKN085 93.4 73 52% 103 29.89 1011.9
16 16:55 W 12 10.00 Thunderstorm in Vicinity SCT070 SCT090 98.2 68.9 39% 104 29.88 1011.6
16 15:55 SW 8 G 18 10.00 Partly Cloudy SCT075 SCT090 98.4 71.2 42% 107 29.88 1011.6
16 14:55 SW 12 10.00 Partly Cloudy SCT060 98.4 70.5 41% 106 29.91 1012.6
16 13:55 SW 12 10.00 Partly Cloudy SCT060 95.9 71.1 98.8 77.2 45% 104 29.92 1012.9
16 12:55 W 6 10.00 Partly Cloudy SCT160 94.5 72.3 49% 103 29.95 1013.9
16 11:55 SW 7 10.00 Fair CLR 92.5 73.4 54% 102 29.97 1014.6
16 10:55 SW 7 10.00 Fair CLR 88 73.2 62% 96 29.97 1014.7
16 09:55 W 9 10.00 A Few Clouds FEW180 85.5 72.7 66% 92 29.97 1014.7
16 08:55 W 8 10.00 A Few Clouds FEW190 81 73 77% 86 29.98 1015.0
16 07:55 SW 6 10.00 Mostly Cloudy BKN180 77.4 73.8 77.7 75.7 89% 79 29.97 1014.7
16 06:55 SW 3 10.00 Mostly Cloudy BKN140 76.3 74.1 93% 76 29.96 1014.3
16 05:55 SW 3 10.00 Overcast OVC170 75.7 73.6 93% 75 29.96 1014.4
16 04:55 SW 3 10.00 Overcast OVC160 75.9 73.4 92% 76 29.94 1013.8
16 03:55 Calm 10.00 A Few Clouds FEW140 77 73.8 90% 78 29.93 1013.3
16 02:55 SW 7 10.00 Mostly Cloudy BKN140 77.2 73.9 90% 79 29.91 1012.6
16 01:55 S 3 8.00 Fair CLR 77.4 73.8 84.2 77.4 89% 79 29.92 1012.9
16 00:55 SW 6 10.00 Fair CLR 78.6 73.9 86% 82 29.94 1013.6
15 23:55 SW 6 10.00 Fair CLR 79.2 73 82% 83 29.95 1013.9
15 22:55 SW 7 10.00 Fair CLR 79.9 72.7 79% 84 29.95 1014.0
15 21:55 SW 6 10.00 Fair CLR 80.2 72.7 78% 84 29.94 1013.6
15 20:55 SW 8 10.00 Overcast BKN170 OVC210 82.4 71.6 70% 87 29.96 1014.3
15 19:55 S 6 10.00 Overcast OVC170 83.8 71.2 100.8 77.4 66% 89 29.94 1013.7 0.23
15 18:55 SW 9 10.00 Mostly Cloudy BKN140 86.5 70.9 60% 92 29.94 1013.7
15 17:55 Calm 10.00 A Few Clouds FEW160 FEW230 87.1 75.6 69% 97 29.91 1012.7
15 16:55 SE 3 10.00 Light Rain FEW035 BKN065 BKN085 79.2 73.8 84% 83 29.94 1013.7 0.23 0.23
15 15:55 W 7 10.00 Overcast FEW070 OVC085 91 72.5 55% 99 29.93 1013.3
15 14:55 S 13 10.00 Partly Cloudy SCT080 98.6 71.4 42% 107 29.93 1013.2
15 13:55 SW 8 10.00 A Few Clouds FEW095 99.3 65.1 99.5 79.3 33% 103 29.95 1013.9
15 12:55 SW 9 10.00 Fair CLR 97.7 71.2 42% 106 29.99 1015.3
15 11:55 S 3 10.00 A Few Clouds FEW160 91.9 73.9 56% 102 30 1015.6
15 10:55 W 3 10.00 Overcast SCT130 OVC150 88.3 74.5 64% 98 30.02 1016.4
15 09:55 W 5 10.00 Mostly Cloudy BKN150 87.4 72.7 62% 95 30.03 1016.7
15 08:55 Calm 10.00 Fair CLR 84.4 74.3 72% 92 30.03 1016.7
15 07:55 Calm 10.00 Fair CLR 79.2 74.1 81 74.3 85% 83 30.02 1016.4
15 06:55 Calm 10.00 Fair CLR 75.4 73.8 95% 74 30 1015.7
15 05:55 Calm 10.00 Fair CLR 75.2 73 93% 74 30 1015.7
15 04:55 S 3 10.00 Fair CLR 77.2 73.6 89% 79 29.98 1015.0
15 03:55 SW 3 10.00 Fair CLR 77.7 73.4 87% 80 29.97 1014.6
15 02:55 W 7 10.00 Fair CLR 79.5 73 81% 83 29.98 1015.0
15 01:55 SW 8 10.00 Fair CLR 80.8 73.6 82.9 80.1 79% 86 30 1015.6
15 00:55 SW 13 10.00 Fair CLR 82 74.1 77% 88 30.02 1016.3
14 23:55 SW 9 10.00 Fair CLR 82.6 74.1 76% 89 30.02 1016.3
14 22:55 S 3 10.00 Fair CLR 80.2 75.2 85% 85 30.02 1016.3
14 21:55 Calm 10.00 Fair CLR 80.8 75.4 84% 87 30.02 1016.3
14 20:55 S 3 10.00 Fair CLR 81.3 76.3 85% 88 30.01 1016.0
14 19:55 NE 3 10.00 Overcast OVC160 82.4 76.3 98.2 82.4 82% 90 30.01 1016.1
14 18:55 SE 7 10.00 Mostly Cloudy FEW070 BKN150 88.3 74.5 64% 98 29.99 1015.4
14 17:55 N 6 10.00 Light Rain SCT070 BKN095 84.4 74.7 73% 92 29.99 1015.4
14 16:55 S 8 G 17 10.00 Mostly Cloudy BKN070 BKN130 96.1 71.2 45% 104 29.99 1015.3
14 15:55 S 12 10.00 Partly Cloudy FEW080 SCT110 95.7 70.2 44% 102 30.01 1016.0
14 14:55 S 13 10.00 Mostly Cloudy FEW075 BKN100 BKN130 94.8 68.7 43% 100 30.03 1016.7
14 13:55 W 6 10.00 Mostly Cloudy FEW090 BKN130 95.9 67.6 98.2 79.2 40% 101 30.05 1017.3
14 12:55 SW 8 10.00 Partly Cloudy SCT060 96.6 69.6 42% 103 30.07 1018.0
14 11:55 W 7 10.00 Fair CLR 93.7 70.3 47% 100 30.09 1018.7
14 10:55 W 7 10.00 Fair CLR 91.8 73.2 55% 101 30.1 1019.0
14 09:55 NW 8 10.00 Fair CLR 90.7 73.8 58% 100 30.11 1019.4
14 08:55 NW 5 10.00 Fair CLR 85.3 74.7 71% 94 30.11 1019.4
14 07:55 Calm 10.00 Fair CLR 79 75 79 73.4 88% 83 30.11 1019.4
14 06:55 Calm 10.00 Fair CLR 75 73.4 95% 73 30.09 1018.7
14 05:55 Calm 10.00 Fair CLR 73.8 72.1 95% 30.09 1018.7
Date Time (edt) Wind (mph) Vis. (mi.) Weather Sky Cond. Air Dwpt Max. Min. Relative Humidity Wind Chill (°F) Heat Index (°F) altimeter (in) sea level (mb) 1 hr 3 hr 6 hr
6 hour
Temperature (ºF) Pressure Precipitation (in)